Regional Weather Roundup
Issued by NWS Sterling, VA

Home | Current Version | Previous Version | Graphics & Text | Print | Product List | Glossary On
Versions: 1 2 3 4 5 6 7 8 9 10 11 12 13 14 15 16 17 18 19 20 21 22 23 24 25 26 27 28 29 30 31 32 33 34 35 36 37 38 39 40 41 42 43 44 45 46 47 48 49 50
000
ASUS41 KLWX 312110
RWRLWX

REGIONAL WEATHER ROUNDUP
NATIONAL WEATHER SERVICE BALTIMORE MD/WASHINGTON DC
500 PM EDT TUE MAY 31 2016

Note: "FAIR" indicates few or no clouds below 12,000 feet
with no significant weather and/or obstructions to visibility.
 TC=TEMPERATURE CELSIUS

 * =Non NWS site. Station does not report precipitation (e.g. rain,
    snow, etc.), thunder, or fog.

DCZ001-MDZ009-015-VAZ040>042-051-053>054-312200-
WASHINGTON METRO

CITY           SKY/WX    TMP DP  RH WIND       PRES   REMARKS
WASHINGTON NAT PTSUNNY   85  68  56 SE7       29.93F
DULLES         PTSUNNY   87  54  32 CALM      29.94F
FT BELVOIR     FAIR      84  66  55 SE1       29.93F
QUANTICO       PTSUNNY   81  67  62 SW6       29.94F
COLLEGE PARK*  FAIR      82  64  54 E3        29.93F
LEESBURG*      FAIR      88  59  37 N6        29.96S
MANASSAS*      PTSUNNY   88  57  35 CALM      29.94F

$$

MDZ006>007-011-014-312200-
BALTIMORE METRO

CITY           SKY/WX    TMP DP  RH WIND       PRES   REMARKS
BWI AIRPORT    MOSUNNY   84  63  49 VRB3      29.93F
MD SCIENCE CTR   N/A     85  64  49 MISG      29.93F
MARTIN STATE   MOSUNNY   84  66  54 SE7       29.94F
ANNAPOLIS      SUNNY     79  69  71 SE7       29.93F
FORT MEADE*    SUNNY     82  63  51 CALM      29.96F

$$

MDZ012-015-019>023-312200-
MARYLAND EASTERN SHORE

CITY           SKY/WX    TMP DP  RH WIND       PRES   REMARKS
OCEAN CITY     SUNNY     74  68  81 S7        29.95F
SALISBURY      MOSUNNY   81  71  71 S8        29.93S
CAMBRIDGE*     SUNNY     81  66  61 N3        29.93F
EASTON*        PTSUNNY   84  73  70 NW5       29.97F HX  91

$$

MDZ017>025-312200-
SOUTHERN MARYLAND

CITY           SKY/WX    TMP DP  RH WIND       PRES   REMARKS
PATUXENT RIVER MOSUNNY   80  65  59 SE6       29.93F
ST INIGOES     SUNNY     81  69  67 S8        29.94F
LEONARDTOWN*   MOSUNNY   81  68  65 S3        29.96F

$$

MDZ003>005-312200-
NORTH CENTRAL MARYLAND

CITY           SKY/WX    TMP DP  RH WIND       PRES   REMARKS
FREDERICK*     MOSUNNY   86  61  42 CALM      29.97F
HAGERSTOWN APT CLOUDY    85  54  34 NW9       29.96S
WESTMINSTER*   MOSUNNY   84  72  65 N5        29.97S

$$

MDZ501>502-312200-
WESTERN MARYLAND

CITY           SKY/WX    TMP DP  RH WIND       PRES   REMARKS
OAKLAND*       CLOUDY    73  52  46 NW5       30.07F
CUMBERLAND*    CLOUDY    86  61  42 SE7       30.00S

$$

VAZ025>031-312200-
SHENANDOAH VALLEY

CITY           SKY/WX    TMP DP  RH WIND       PRES   REMARKS
WINCHESTER*    FAIR      82  55  39 E6        29.97S
FRONT ROYAL*   FAIR      82  59  44 CALM      29.96S
LURAY*         FAIR      84  55  37 N7        29.97F
NEW MARKET*    FAIR     N/A N/A N/A E5        29.95S
STAUNTON*      FAIR      82  56  40 NE3       30.00S
WAYNESBORO*    MOCLDY    82  61  48 E5        29.99F

$$

WVZ021-048>050-054>055-312200-
EASTERN WEST VIRGINIA PANHANDLE

CITY           SKY/WX    TMP DP  RH WIND       PRES   REMARKS
MARTINSBURG    FAIR      85  55  35 CALM      29.95F
PETERSBURG*    FAIR      84  59  42 CALM      29.98F

$$

VAZ036>039-050-312200-
CENTRAL FOOTHILLS

CITY           SKY/WX    TMP DP  RH WIND       PRES   REMARKS
CHARLOTTESVILL FAIR      85  62  46 E7        29.95F
CULPEPER*      FAIR      87  61  41 N5        29.95S
ORANGE*        FAIR      82  63  51 CALM      29.97S
GORDONSVILLE*  MOCLDY    84  68  57 E3        29.95S
WARRENTON*     FAIR      88  51  28 N3        29.94F

$$

VAZ055>057-312200-
NORTH AND CENTRAL PIEDMONT

CITY           SKY/WX    TMP DP  RH WIND       PRES   REMARKS
FREDERICKSBRG* PTSUNNY   84  67  56 SE3       29.93S
STAFFORD*      PTSUNNY   83  62  50 NE6       29.98S

$$

NCZ024-NYZ072-PAZ021-071-VAZ022-071-312200-
OTHER REGIONAL OBSERVATIONS

CITY           SKY/WX    TMP DP  RH WIND       PRES   REMARKS
NEW YORK CITY  SUNNY     80  59  48 VRB3      29.94S
PHILADELPHIA   MOSUNNY   87  49  26 NW10      29.92F
PITTSBURGH     CLOUDY    84  54  35 NW6       29.98S
ROANOKE        FAIR      84  63  49 E6        29.99S
RICHMOND       FAIR      83  69  62 E9        29.94F
RALEIGH        PTSUNNY   83  67  58 NE14      29.93S

$$

ANZ530>537-312200-
MARINE OBSERVATIONS

STATION/POSITION TIME  TEMP    WIND        PRES
                       AIR SEA DIR/SP/G
                 (UTC) (F)     (DEG/KT/KT) (MB)
THOMAS PT LIGHT  2100   77 73  180/  4/  5 1014.9F
BALT KEY BRIDGE  2000   80     130/  6/  7 1013.7F
COVE POINT       2000   74     180/  4/  5 1014.7F
LEWISETTA        2000   76 75  110/  3/  4 1014.0F
SOLOMONS ISLAND  2000   76 67   90/  5/  5   N/A
PINEY POINT      2000          190/  6/  7   N/A

$$




USA.gov is the U.S. government's official web portal to all federal, state and local government web resources and services.